• In Czech Republic
  • List of Countries
  • For 7 days
  • Water Temperature
  • Satellite Maps
  • Weather Map
  • Weather Widgets
  • user-avatar
    Login

    Hourly Weather Cuapiaxtla

    Today, 18 November, Saturday

    Time Temperature Precipitation Wind Pressure Humidity
    00:00 +11°C° 0 mm 1 mps 569 mmHg 80%
    01:00 +11°C° 0 mm 1 mps 569 mmHg 79%
    02:00 +11°C° 0 mm 1 mps 568 mmHg 78%
    03:00 +10°C° 0 mm 1 mps 568 mmHg 78%
    04:00 +10°C° 0 mm 1 mps 568 mmHg 77%
    05:00 +9°C° 0 mm 1 mps 568 mmHg 76%
    06:00 +11°C° 0 mm 1 mps 569 mmHg 66%
    07:00 +14°C° 0 mm 1 mps 570 mmHg 55%
    08:00 +16°C° 0 mm 1 mps 572 mmHg 45%
    09:00 +19°C° 0 mm 1 mps 572 mmHg 37%
    10:00 +21°C° 0 mm 1 mps 573 mmHg 29%
    11:00 +22°C° 0 mm 1 mps 573 mmHg 21%
    12:00 +23°C° 0 mm 2 mps 573 mmHg 22%
    13:00 +23°C° 0 mm 2 mps 572 mmHg 23%
    14:00 +23°C° 0 mm 2 mps 572 mmHg 24%
    15:00 +20°C° 0 mm 2 mps 571 mmHg 34%
    16:00 +18°C° 0 mm 2 mps 570 mmHg 44%
    17:00 +16°C° 0 mm 2 mps 569 mmHg 54%
    18:00 +15°C° 0 mm 2 mps 570 mmHg 58%
    19:00 +14°C° 0 mm 1 mps 570 mmHg 62%
    20:00 +13°C° 0 mm 1 mps 570 mmHg 67%
    21:00 +12°C° 0 mm 1 mps 570 mmHg 62%
    22:00 +10°C° 0 mm 2 mps 569 mmHg 58%
    23:00 +10°C° 0 mm 2 mps 569 mmHg 54%

    Tomorrow, 19 November, Sunday

    Time Temperature Precipitation Wind Pressure Humidity
    00:00 +9°C° 0 mm 2 mps 569 mmHg 50%
    01:00 +8°C° 0 mm 2 mps 569 mmHg 47%
    02:00 +8°C° 0 mm 3 mps 568 mmHg 43%
    03:00 +7°C° 0 mm 3 mps 568 mmHg 45%
    04:00 +7°C° 0 mm 3 mps 568 mmHg 48%
    05:00 +5°C° 0 mm 3 mps 568 mmHg 50%
    06:00 +7°C° 0 mm 4 mps 570 mmHg 54%
    07:00 +10°C° 0 mm 4 mps 571 mmHg 57%
    08:00 +10°C° 0 mm 5 mps 572 mmHg 60%
    09:00 +12°C° 0 mm 5 mps 573 mmHg 60%
    10:00 +13°C° 0 mm 5 mps 573 mmHg 59%
    11:00 +14°C° 0 mm 5 mps 573 mmHg 59%
    12:00 +14°C° 0 mm 4 mps 572 mmHg 60%
    13:00 +14°C° 0 mm 4 mps 572 mmHg 62%
    14:00 +13°C° 0 mm 4 mps 571 mmHg 64%
    15:00 +12°C° 0 mm 4 mps 571 mmHg 68%
    16:00 +11°C° 0 mm 3 mps 570 mmHg 72%
    17:00 +10°C° 0 mm 3 mps 570 mmHg 76%
    18:00 +10°C° 0 mm 3 mps 570 mmHg 80%
    19:00 +9°C° 0 mm 3 mps 570 mmHg 83%
    20:00 +8°C° 0 mm 3 mps 571 mmHg 86%
    21:00 +8°C° 0 mm 2 mps 570 mmHg 86%
    22:00 +8°C° 0 mm 2 mps 570 mmHg 86%
    23:00 +8°C° 0 mm 2 mps 570 mmHg 86%

    Day after tomorrow, 20 November, Monday

    Time Temperature Precipitation Wind Pressure Humidity
    00:00 +7°C° 0 mm 2 mps 569 mmHg 87%
    01:00 +7°C° 0 mm 2 mps 569 mmHg 88%
    02:00 +6°C° 0 mm 2 mps 568 mmHg 89%
    03:00 +7°C° 0 mm 1 mps 568 mmHg 88%
    04:00 +7°C° 0 mm 1 mps 568 mmHg 86%
    05:00 +6°C° 0 mm 1 mps 568 mmHg 85%
    06:00 +9°C° 0 mm 1 mps 569 mmHg 74%
    07:00 +11°C° 0 mm 1 mps 570 mmHg 64%
    08:00 +13°C° 0 mm 1 mps 572 mmHg 53%
    09:00 +15°C° 0 mm 1 mps 572 mmHg 45%
    10:00 +18°C° 0 mm 1 mps 572 mmHg 38%
    11:00 +19°C° 0 mm 1 mps 573 mmHg 31%
    12:00 +20°C° 0 mm 1 mps 572 mmHg 31%
    13:00 +19°C° 0 mm 2 mps 572 mmHg 31%
    14:00 +20°C° 0 mm 2 mps 571 mmHg 31%
    15:00 +18°C° 0 mm 2 mps 571 mmHg 40%
    16:00 +16°C° 0 mm 2 mps 570 mmHg 48%
    17:00 +15°C° 0 mm 2 mps 569 mmHg 57%
    18:00 +14°C° 0 mm 1 mps 569 mmHg 62%
    19:00 +13°C° 0 mm 1 mps 569 mmHg 68%
    20:00 +11°C° 0 mm 0 mps 569 mmHg 73%
    21:00 +11°C° 0 mm 0 mps 569 mmHg 72%
    22:00 +11°C° 0 mm 1 mps 569 mmHg 71%
    23:00 +11°C° 0 mm 1 mps 569 mmHg 71%

    21 November, Tuesday

    Time Temperature Precipitation Wind Pressure Humidity
    00:00 +11°C° 0 mm 1 mps 568 mmHg 71%
    01:00 +10°C° 0 mm 1 mps 568 mmHg 71%
    02:00 +10°C° 0 mm 1 mps 567 mmHg 72%
    03:00 +9°C° 0 mm 1 mps 567 mmHg 73%
    04:00 +9°C° 0 mm 1 mps 567 mmHg 74%
    05:00 +9°C° 0 mm 1 mps 567 mmHg 75%
    06:00 +11°C° 0 mm 1 mps 568 mmHg 66%
    07:00 +13°C° 0 mm 1 mps 570 mmHg 57%
    08:00 +15°C° 0 mm 1 mps 571 mmHg 49%
    09:00 +18°C° 0 mm 1 mps 571 mmHg 43%
    10:00 +18°C° 0 mm 2 mps 572 mmHg 38%
    11:00 +20°C° 0 mm 2 mps 572 mmHg 32%
    12:00 +20°C° 0 mm 2 mps 571 mmHg 33%
    13:00 +20°C° 0 mm 2 mps 571 mmHg 34%
    14:00 +21°C° 0 mm 3 mps 571 mmHg 34%
    15:00 +19°C° 0 mm 2 mps 570 mmHg 42%
    16:00 +17°C° 0 mm 2 mps 569 mmHg 51%
    17:00 +16°C° 0 mm 2 mps 569 mmHg 59%
    18:00 +15°C° 0 mm 1 mps 569 mmHg 63%
    19:00 +14°C° 0 mm 1 mps 569 mmHg 67%
    20:00 +13°C° 0 mm 1 mps 569 mmHg 70%
    21:00 +13°C° 0 mm 1 mps 569 mmHg 72%
    22:00 +12°C° 0 mm 1 mps 568 mmHg 73%
    23:00 +12°C° 0 mm 1 mps 568 mmHg 74%

    22 November, Wednesday

    Time Temperature Precipitation Wind Pressure Humidity
    00:00 +11°C° 0 mm 1 mps 568 mmHg 75%
    01:00 +11°C° 0 mm 1 mps 567 mmHg 76%
    02:00 +11°C° 0 mm 1 mps 567 mmHg 77%
    03:00 +10°C° 0 mm 1 mps 567 mmHg 79%
    04:00 +10°C° 0 mm 1 mps 567 mmHg 81%
    05:00 +8°C° 0 mm 0 mps 567 mmHg 82%
    06:00 +11°C° 0 mm 1 mps 569 mmHg 75%
    07:00 +13°C° 0 mm 1 mps 570 mmHg 68%
    08:00 +14°C° 0 mm 1 mps 571 mmHg 61%
    09:00 +15°C° 0 mm 2 mps 571 mmHg 58%
    10:00 +16°C° 0 mm 2 mps 572 mmHg 55%
    11:00 +17°C° 0 mm 3 mps 572 mmHg 51%
    12:00 +17°C° 0.1 mm 3 mps 571 mmHg 55%
    13:00 +15°C° 0.1 mm 4 mps 571 mmHg 59%
    14:00 +15°C° 0.1 mm 4 mps 570 mmHg 62%
    15:00 +13°C° 0.2 mm 4 mps 570 mmHg 67%
    16:00 +12°C° 0.2 mm 4 mps 569 mmHg 71%
    17:00 +11°C° 0.2 mm 4 mps 569 mmHg 76%
    18:00 +10°C° 0 mm 4 mps 569 mmHg 77%
    19:00 +8°C° 0 mm 4 mps 570 mmHg 79%
    20:00 +8°C° 0 mm 4 mps 570 mmHg 80%
    21:00 +8°C° 0 mm 3 mps 569 mmHg 80%
    22:00 +8°C° 0 mm 3 mps 569 mmHg 80%
    23:00 +8°C° 0 mm 3 mps 569 mmHg 81%

    23 November, Thursday

    Time Temperature Precipitation Wind Pressure Humidity
    00:00 +7°C° 0 mm 3 mps 569 mmHg 81%
    01:00 +7°C° 0 mm 3 mps 568 mmHg 81%
    02:00 +7°C° 0 mm 3 mps 568 mmHg 81%
    03:00 +7°C° 0 mm 2 mps 568 mmHg 82%
    04:00 +6°C° 0 mm 2 mps 568 mmHg 83%
    05:00 +6°C° 0 mm 2 mps 568 mmHg 83%
    06:00 +7°C° 0 mm 2 mps 568 mmHg 78%
    07:00 +8°C° 0 mm 3 mps 569 mmHg 72%
    08:00 +9°C° 0 mm 3 mps 570 mmHg 67%
    09:00 +10°C° 0 mm 3 mps 570 mmHg 60%
    10:00 +13°C° 0 mm 2 mps 571 mmHg 53%
    11:00 +14°C° 0 mm 2 mps 571 mmHg 46%
    12:00 +15°C° 0 mm 2 mps 571 mmHg 46%
    13:00 +15°C° 0 mm 2 mps 570 mmHg 46%
    14:00 +15°C° 0 mm 2 mps 570 mmHg 46%
    15:00 +14°C° 0 mm 2 mps 570 mmHg 54%
    16:00 +11°C° 0 mm 3 mps 569 mmHg 62%
    17:00 +10°C° 0 mm 3 mps 569 mmHg 69%
    18:00 +9°C° 0 mm 2 mps 569 mmHg 73%
    19:00 +9°C° 0 mm 2 mps 569 mmHg 76%
    20:00 +8°C° 0 mm 2 mps 569 mmHg 79%
    21:00 +8°C° 0 mm 2 mps 569 mmHg 80%
    22:00 +7°C° 0 mm 2 mps 569 mmHg 81%
    23:00 +7°C° 0 mm 2 mps 569 mmHg 82%
    Show more